[[{"header":{"parameterUnit":"m.s-1","parameterCategory":1,"la1":30.2991,"la2":30.254,"lo1":-89.0895,"lo2":-89.0444,"dy":0.0017,"dx":0.0017,"nx":28,"ny":28,"refTime":"2024-02-03T03:00:00:Z","depth":0,"parameterNumber":2,"parameterNumberName":"U-component_of_WINDS"},"data":[0,0,0,0,0,0,0,0,0,0,0,0,0,0,0,0,0,0,0,0,0,0,0,0,0,0,0,0,0,0,0,0,0,0,0,0,0,0,0,0,0,0,0,0,0,0,0,0,0,0,0,0,0,0,0,0,0,0,-5.8442,-5.8441,0,-5.8385,-5.8384,-5.8384,-5.8251,-5.8249,-5.8246,-5.8243,-5.819,-5.8191,-5.8192,0,0,0,0,0,0,0,0,0,0,0,0,0,-5.8443,-5.8444,-5.8442,-5.8441,-5.8441,-5.8385,-5.8384,-5.8384,-5.8252,-5.8248,-5.8245,-5.8242,-5.819,-5.8191,-5.8193,0,0,0,0,0,0,0,0,0,0,0,0,0,-5.842,-5.8444,-5.8442,-5.8368,-5.8361,-5.8385,-5.8384,-5.8383,-5.8252,-5.8248,-5.8244,-5.824,-5.8189,-5.8191,-5.8193,-5.8286,0,0,-5.8198,-5.8199,0,0,0,0,0,0,0,0,-5.8422,-5.842,-5.838,-5.8373,-5.8365,-5.8321,-5.8365,-5.8351,-5.8254,-5.8294,-5.8243,-5.8238,-5.8237,-5.8235,-5.8233,-5.8284,-5.8282,-5.8198,-5.8199,-5.82,-5.8201,0,0,0,0,0,0,0,-5.8423,-5.8422,-5.842,-5.8379,-5.837,-5.834,-5.8332,-5.8362,-5.829,-5.829,-5.828,-5.8275,-5.8233,-5.8232,-5.8231,-5.8281,-5.8198,-5.82,-5.8201,-5.8201,-5.8407,-5.8411,0,0,0,0,0,0,-5.8435,-5.8424,-5.8421,-5.8418,-5.8384,-5.8343,-5.8334,-5.8339,-5.8289,-5.8277,-5.8279,-5.8269,-5.8231,-5.8229,-5.8229,-5.8335,-5.82,-5.8202,-5.8203,-5.8402,-5.8408,-5.8412,0,0,0,0,0,0,-5.8435,-5.8436,-5.8424,-5.8418,-5.8414,-5.8347,-5.8354,-5.834,-5.8339,-5.828,-5.8267,-5.8291,-5.8228,-5.8226,-5.8273,-5.8331,-5.8202,-5.8204,-5.8397,-5.8404,-5.841,-5.8548,0,0,0,0,0,0,-5.8436,-5.8437,-5.847,-5.842,-5.8415,-5.8467,-5.8358,-5.8342,-5.8342,-5.8329,-5.8288,-5.8278,-5.8224,-5.8271,-5.8275,-5.8331,-5.8205,-5.8391,-5.84,-5.8408,-5.8538,-5.8558,-5.8576,0,0,0,0,0,-5.8436,-5.8512,-5.8472,-5.8473,-5.8455,-5.847,-5.8468,-5.8404,-5.8348,-5.8381,-5.8344,-5.8279,-5.8325,-5.8277,-5.828,-5.8338,-5.8387,-5.8398,-5.8407,-5.8529,-5.8554,-5.8576,0,0,0,0,0,0,-5.8572,-5.8504,-5.8459,-5.852,-5.8502,-5.8448,-5.8488,-5.8432,-5.8431,-5.8419,-5.8341,-5.8333,-5.8391,-5.8369,-5.8317,-5.8427,-5.8346,-5.8357,-5.8438,-5.8461,-5.848,-5.8483,-5.8207,0,0,0,0,0,-5.8608,-5.8625,-5.8566,-5.8626,-5.8619,-5.8556,-5.856,-5.8512,-5.8491,-5.8483,-5.8448,-5.8432,-5.8442,-5.8451,-5.8457,-5.8535,-5.8525,-5.8577,-5.8596,-5.8612,-5.8622,-5.8662,-5.8685,-5.8445,-5.8445,-5.8445,0,0,-5.8685,-5.865,-5.8665,-5.8652,-5.8632,-5.8652,-5.855,-5.8576,-5.8591,-5.8487,-5.8528,-5.8503,-5.848,-5.8542,-5.8568,-5.8526,-5.8686,-5.8625,-5.8638,-5.8639,-5.8675,-5.8697,-5.8718,-5.8452,-5.845,-5.8449,0,0,-5.8833,-5.8809,-5.8856,-5.8838,-5.8809,-5.8767,-5.8779,-5.8734,-5.8713,-5.8753,-5.8676,-5.8694,-5.8714,-5.87,-5.8696,-5.8844,-5.8784,-5.8849,-5.8947,-5.8988,-5.9006,-5.9023,-5.9075,-5.9095,-5.8859,-5.8859,-5.886,0,-5.8932,-5.8957,-5.8888,-5.8918,-5.8915,-5.8822,-5.8871,-5.8858,-5.8834,-5.8835,-5.8788,-5.8812,-5.879,-5.8848,-5.8884,-5.8884,-5.8896,-5.8851,-5.9009,-5.9025,-5.9039,-5.9088,-5.9108,-5.8867,-5.8866,-5.8866,-5.8865,0,-5.908,-5.91,-5.9142,-5.9119,-5.9121,-5.9161,-5.9099,-5.911,-5.9064,-5.9028,-5.9071,-5.9042,-5.9041,-5.9052,-5.9007,-5.9105,-5.9079,-5.9023,-5.8939,-5.9071,-5.9115,-5.9134,-5.8879,-5.8876,-5.8873,-5.8871,0,0,-5.9309,-5.9249,-5.9265,-5.9254,-5.9217,-5.9231,-5.9269,-5.9266,-5.9278,-5.9266,-5.9295,-5.9315,-5.9263,-5.9258,-5.9212,-5.9248,-5.9366,-5.9186,-5.9184,-5.9219,-5.9472,-5.9514,-5.9536,-5.9328,-5.9331,-5.9334,-5.9474,0,-5.9448,-5.9504,-5.9444,-5.9514,-5.9531,-5.9445,-5.9478,-5.946,-5.9428,-5.9441,-5.9407,-5.9422,-5.9351,-5.9348,-5.938,-5.9345,-5.9415,-5.9334,-5.9355,-5.9357,-5.9361,-5.9559,-5.9603,-5.9736,-5.9491,-5.9494,-5.9496,0,-5.9615,-5.961,-5.9681,-5.964,-5.9646,-5.9675,-5.9669,-5.9682,-5.9661,-5.9636,-5.9633,-5.9576,-5.9612,-5.9533,-5.9582,-5.9528,-5.9534,-5.9519,-5.9523,-5.952,-5.9432,-5.9561,-5.9777,-5.9797,-5.9523,-5.952,-5.9518,0,-5.9774,-5.9785,-5.9828,-5.9822,-5.9776,-5.9799,-5.9782,-5.9756,-5.976,-5.9756,-5.9757,-5.9759,-5.9759,-5.9763,-5.9709,-5.9657,-5.9765,-5.9682,-5.9746,-5.9747,-5.977,-5.9769,-5.9988,-5.9778,-5.9778,-5.9777,-5.9777,0,-5.9934,-5.998,-5.9899,-5.9926,-5.9977,-5.9909,-5.9962,-5.9936,-5.9915,-5.9937,-5.9864,-5.9887,-5.9816,-5.9832,-5.9792,-5.9838,-5.984,-5.9821,-5.9809,-5.9826,-5.9828,-5.9827,-5.9815,-5.9782,-5.9781,-5.978,-5.9779,0,-6.0118,-6.0065,-6.0107,-6.0061,-6.005,-6.009,-6.0051,-6.0075,-6.004,-6.0069,-6.0072,-6.0017,-6.0032,-5.998,-5.9988,-5.996,-6.0029,-6.0003,-6.0035,-6.0026,-6.0092,-6.0087,-6.0317,-6.0344,-6.0118,-6.012,-6.0122,0,-6.0222,-6.0255,-6.0213,-6.0221,-6.0207,-6.0223,-6.0225,-6.0161,-6.0168,-6.0148,-6.0175,-6.0184,-6.0187,-6.0217,-6.0179,-6.0184,-6.0157,-6.0238,-6.0157,-6.0174,-6.0157,-6.0154,-6.0157,-6.0253,-6.0256,-6.0259,-6.026,0,-6.0412,-6.0384,-6.039,-6.0388,-6.0393,-6.0388,-6.0379,-6.0391,-6.0322,-6.0334,-6.0347,-6.035,-6.0358,-6.0368,-6.0366,-6.035,-6.0295,-6.0287,-6.0301,-6.0318,-6.0334,-6.0325,-6.0078,-6.0281,-6.0279,-6.0277,-6.0276,-6.0275,-6.0557,-6.0584,-6.0558,-6.0567,-6.0554,-6.0547,-6.0567,-6.0535,-6.0545,-6.0544,-6.0507,-6.0529,-6.051,-6.0501,-6.0491,-6.0509,-6.0472,-6.0493,-6.0499,-6.0504,-6.0515,-6.0334,-6.0509,-6.0508,-6.0507,-6.0507,-6.0506,0,-6.0742,-6.0722,-6.0732,-6.072,-6.0729,-6.0675,-6.0663,-6.0674,-6.0693,-6.0679,-6.0684,-6.0701,-6.0712,-6.0676,-6.0681,-6.0703,-6.0677,-6.0706,-6.0703,-6.07,-6.0549,-6.0534,-6.0726,-6.0726,-6.0726,-6.0726,-6.0726,-6.0726,-6.0839,-6.0881,-6.0851,-6.0887,-6.0866,-6.0885,-6.0883,-6.0878,-6.0866,-6.0888,-6.0895,-6.0872,-6.0849,-6.0853,-6.0861,-6.085,-6.0855,-6.0893,-6.0874,-6.0732,-6.0711,-6.069,-6.0676,-6.0895,-6.0895,-6.1023,-6.1024,-6.1025]},{"header":{"parameterUnit":"m.s-1","parameterCategory":1,"la1":30.2991,"la2":30.254,"lo1":-89.0895,"lo2":-89.0444,"dy":0.0017,"dx":0.0017,"nx":28,"ny":28,"refTime":"2024-02-03T03:00:00:Z","depth":0,"parameterNumber":3,"parameterNumberName":"V-component_of_WINDS"},"data":[0,0,0,0,0,0,0,0,0,0,0,0,0,0,0,0,0,0,0,0,0,0,0,0,0,0,0,0,0,0,0,0,0,0,0,0,0,0,0,0,0,0,0,0,0,0,0,0,0,0,0,0,0,0,0,0,0,0,2.0864,2.0865,0,2.092,2.0921,2.0921,2.0967,2.0967,2.0968,2.0968,2.1022,2.1023,2.1024,0,0,0,0,0,0,0,0,0,0,0,0,0,2.0795,2.0796,2.0864,2.0865,2.0866,2.092,2.0921,2.0922,2.0967,2.0967,2.0968,2.0968,2.1021,2.1023,2.1024,0,0,0,0,0,0,0,0,0,0,0,0,0,2.0835,2.0797,2.0864,2.0895,2.0898,2.092,2.0921,2.0922,2.0966,2.0967,2.0968,2.0969,2.1021,2.1022,2.1024,2.1019,0,0,2.1028,2.1029,0,0,0,0,0,0,0,0,2.0833,2.0838,2.089,2.0893,2.0896,2.0937,2.0916,2.0954,2.0966,2.094,2.0968,2.0969,2.0993,2.0997,2.1005,2.1021,2.1024,2.1029,2.1029,2.103,2.103,0,0,0,0,0,0,0,2.083,2.0836,2.0886,2.089,2.0894,2.0905,2.0912,2.0924,2.0962,2.0943,2.0946,2.0952,2.0995,2.1004,2.1007,2.1024,2.1029,2.103,2.1031,2.1031,2.1041,2.1041,0,0,0,0,0,0,2.0823,2.0833,2.0885,2.0888,2.0866,2.0906,2.0913,2.0923,2.0962,2.0968,2.0952,2.0954,2.1001,2.1005,2.1009,2.1007,2.103,2.1031,2.1032,2.1042,2.1041,2.104,0,0,0,0,0,0,2.0821,2.0827,2.0882,2.0862,2.0869,2.0906,2.0917,2.0924,2.0933,2.0969,2.0975,2.0954,2.1002,2.1007,2.1017,2.101,2.1032,2.1033,2.1042,2.1042,2.1041,2.1002,0,0,0,0,0,0,2.0819,2.0826,2.0825,2.0861,2.087,2.0889,2.0917,2.0925,2.0936,2.094,2.0973,2.0979,2.1003,2.1014,2.1018,2.1012,2.1035,2.1043,2.1042,2.1041,2.1004,2.1,2.0997,0,0,0,0,0,2.0817,2.0811,2.0825,2.0831,2.087,2.0889,2.0894,2.0923,2.0935,2.0934,2.0957,2.0978,2.101,2.1015,2.102,2.1014,2.1044,2.1042,2.1041,2.1006,2.1001,2.0997,0,0,0,0,0,0,2.0771,2.0816,2.0832,2.0838,2.0859,2.0897,2.0896,2.0916,2.0934,2.0936,2.097,2.0977,2.0984,2.1,2.1005,2.1012,2.103,2.1029,2.1001,2.0997,2.0993,2.0989,2.1036,0,0,0,0,0,2.0761,2.0774,2.0813,2.0814,2.0824,2.0858,2.0868,2.0888,2.0912,2.092,2.0944,2.0965,2.0981,2.0989,2.1005,2.1007,2.1015,2.1005,2.1002,2.0998,2.0997,2.1001,2.0998,2.1036,2.1036,2.1036,0,0,2.0742,2.0768,2.0774,2.0806,2.0825,2.0837,2.0865,2.0877,2.0886,2.0922,2.0933,2.0951,2.0977,2.0984,2.0988,2.0997,2.0989,2.0996,2.0993,2.0995,2.0999,2.0996,2.0993,2.1035,2.1035,2.1035,0,0,2.0713,2.0734,2.0739,2.0758,2.0788,2.0811,2.0812,2.0846,2.0861,2.0873,2.0901,2.0912,2.0937,2.0955,2.0967,2.0948,2.0968,2.0952,2.0931,2.0935,2.0932,2.0929,2.0923,2.0921,2.0951,2.0951,2.0951,0,2.0685,2.0705,2.0738,2.0749,2.0762,2.0797,2.0802,2.0819,2.0851,2.086,2.087,2.0904,2.0924,2.0936,2.0931,2.094,2.0942,2.0948,2.093,2.0928,2.0926,2.0921,2.0918,2.0949,2.0949,2.0949,2.0949,0,2.067,2.0684,2.0684,2.0717,2.073,2.0738,2.0771,2.0781,2.0801,2.0823,2.0836,2.0861,2.0883,2.0888,2.0906,2.0903,2.0908,2.0924,2.0942,2.092,2.0915,2.0914,2.0946,2.0947,2.0947,2.0948,0,0,2.0612,2.0665,2.0665,2.0681,2.0717,2.0728,2.0738,2.0761,2.077,2.0791,2.08,2.0822,2.0838,2.0852,2.0873,2.0875,2.086,2.0891,2.0892,2.0885,2.086,2.0848,2.0845,2.0874,2.0874,2.0873,2.0858,0,2.059,2.0611,2.0641,2.0651,2.0665,2.07,2.0708,2.0731,2.0752,2.0767,2.079,2.0805,2.0824,2.0833,2.0837,2.0861,2.0856,2.0863,2.0882,2.0883,2.0876,2.0843,2.083,2.0814,2.0856,2.0856,2.0856,0,2.0566,2.0589,2.0601,2.0638,2.0645,2.0652,2.0678,2.0691,2.0718,2.0733,2.075,2.0774,2.0786,2.0802,2.082,2.0824,2.0834,2.0847,2.0847,2.085,2.0868,2.0845,2.0809,2.0807,2.0853,2.0853,2.0854,0,2.0525,2.0557,2.057,2.0582,2.0626,2.063,2.0648,2.0676,2.0689,2.0711,2.072,2.0742,2.0754,2.077,2.0799,2.0809,2.0814,2.0833,2.0827,2.0826,2.0826,2.0826,2.0792,2.0832,2.0832,2.0832,2.0832,0,2.0497,2.0503,2.0552,2.0559,2.0568,2.0603,2.061,2.0631,2.0656,2.0668,2.0699,2.0709,2.0747,2.0761,2.0784,2.0796,2.08,2.0813,2.0819,2.0811,2.0809,2.0818,2.082,2.0831,2.0831,2.0831,2.0832,0,2.0452,2.0484,2.05,2.0541,2.0552,2.0556,2.0591,2.0599,2.0623,2.0638,2.0643,2.068,2.0699,2.073,2.0758,2.0773,2.0781,2.079,2.0772,2.0776,2.0769,2.0769,2.074,2.0738,2.0778,2.0777,2.0777,0,2.0432,2.0438,2.048,2.0492,2.0509,2.0526,2.0541,2.0576,2.0589,2.0622,2.0627,2.0649,2.0668,2.0697,2.0726,2.0748,2.0758,2.0747,2.0762,2.0754,2.0759,2.0759,2.076,2.0743,2.0742,2.0742,2.0741,0,2.0394,2.0411,2.043,2.0457,2.0473,2.0495,2.0518,2.0525,2.0565,2.0579,2.06,2.0615,2.0645,2.0667,2.0693,2.0711,2.0733,2.0737,2.0737,2.0728,2.0718,2.0724,2.0763,2.0737,2.0737,2.0738,2.0738,2.0738,2.0362,2.0369,2.0401,2.0423,2.0445,2.0466,2.0477,2.0503,2.0522,2.055,2.0569,2.0589,2.0618,2.0656,2.0673,2.0689,2.0698,2.0698,2.0698,2.0698,2.0695,2.0715,2.0693,2.0694,2.0694,2.0694,2.0694,0,2.0326,2.0349,2.0369,2.0401,2.0419,2.044,2.0467,2.048,2.0498,2.0523,2.0543,2.0568,2.0589,2.062,2.0644,2.0651,2.0662,2.0656,2.0656,2.066,2.0684,2.0683,2.0648,2.0648,2.0648,2.0648,2.0648,2.0648,2.031,2.0325,2.0345,2.0372,2.0394,2.0416,2.043,2.045,2.0471,2.0498,2.0517,2.0538,2.0566,2.0592,2.0613,2.0622,2.063,2.0621,2.0632,2.0654,2.0659,2.0663,2.0661,2.0622,2.0622,2.0607,2.0607,2.0607]}]]